Year,Month,Day,Hour,Minute,Value (Times are PST for temperature in C)
2014,04,29,00,00,11.00
2014,04,29,00,01,10.90
2014,04,29,00,02,10.90
2014,04,29,00,03,10.90
2014,04,29,00,04,10.90
2014,04,29,00,05,10.90
2014,04,29,00,06,10.90
2014,04,29,00,07,10.90
2014,04,29,00,08,10.90
2014,04,29,00,09,10.90
2014,04,29,00,10,10.90
2014,04,29,00,11,10.90
2014,04,29,00,12,10.90
2014,04,29,00,13,10.90
2014,04,29,00,14,10.90
2014,04,29,00,15,10.90
2014,04,29,00,16,10.90
2014,04,29,00,17,10.90
2014,04,29,00,18,10.90
2014,04,29,00,19,10.90
2014,04,29,00,20,10.90
2014,04,29,00,21,10.90
2014,04,29,00,22,10.90
2014,04,29,00,23,10.90
2014,04,29,00,24,10.90
2014,04,29,00,25,11.00
2014,04,29,00,26,11.10
2014,04,29,00,27,11.10
2014,04,29,00,28,11.10
2014,04,29,00,29,11.10
2014,04,29,00,30,11.10
2014,04,29,00,31,11.10
2014,04,29,00,32,11.10
2014,04,29,00,33,11.10
2014,04,29,00,34,11.10
2014,04,29,00,35,11.10
2014,04,29,00,36,11.10
2014,04,29,00,37,11.10
2014,04,29,00,38,11.20
2014,04,29,00,39,11.20
2014,04,29,00,40,11.20
2014,04,29,00,41,11.20
2014,04,29,00,42,11.20
2014,04,29,00,43,11.20
2014,04,29,00,44,11.20
2014,04,29,00,45,11.20
2014,04,29,00,46,11.20
2014,04,29,00,47,11.20
2014,04,29,00,48,11.10
2014,04,29,00,49,11.10
2014,04,29,00,50,11.10
2014,04,29,00,51,11.10
2014,04,29,00,52,11.10
2014,04,29,00,53,11.10
2014,04,29,00,54,11.10
2014,04,29,00,55,11.10
2014,04,29,00,56,11.10
2014,04,29,00,57,11.10
2014,04,29,00,58,11.10
2014,04,29,00,59,11.10
2014,04,29,01,00,11.10
2014,04,29,01,01,11.10
2014,04,29,01,02,11.00
2014,04,29,01,03,10.90
2014,04,29,01,04,10.90
2014,04,29,01,05,10.90
2014,04,29,01,06,10.90
2014,04,29,01,07,10.90
2014,04,29,01,08,10.90
2014,04,29,01,09,10.90
2014,04,29,01,10,10.90
2014,04,29,01,11,10.90
2014,04,29,01,12,10.90
2014,04,29,01,13,10.80
2014,04,29,01,14,10.80
2014,04,29,01,15,10.80
2014,04,29,01,16,10.80
2014,04,29,01,17,10.80
2014,04,29,01,18,10.70
2014,04,29,01,19,10.70
2014,04,29,01,20,10.70
2014,04,29,01,21,10.70
2014,04,29,01,22,10.70
2014,04,29,01,23,10.60
2014,04,29,01,24,10.60
2014,04,29,01,25,10.60
2014,04,29,01,26,10.60
2014,04,29,01,27,10.60
2014,04,29,01,28,10.60
2014,04,29,01,29,10.60
2014,04,29,01,30,10.60
2014,04,29,01,31,10.60
2014,04,29,01,32,10.60
2014,04,29,01,33,10.60
2014,04,29,01,34,10.60
2014,04,29,01,35,10.60
2014,04,29,01,36,10.60
2014,04,29,01,37,10.50
2014,04,29,01,38,10.40
2014,04,29,01,39,10.40
2014,04,29,01,40,10.40
2014,04,29,01,41,10.40
2014,04,29,01,42,10.40
2014,04,29,01,43,10.40
2014,04,29,01,44,10.30
2014,04,29,01,45,10.30
2014,04,29,01,46,10.30
2014,04,29,01,47,10.20
2014,04,29,01,48,10.20
2014,04,29,01,49,10.20
2014,04,29,01,50,10.10
2014,04,29,01,51,10.10
2014,04,29,01,52,10.10
2014,04,29,01,53,10.10
2014,04,29,01,54,10.10
2014,04,29,01,55,10.00
2014,04,29,01,56,9.90
2014,04,29,01,57,9.90
2014,04,29,01,58,9.90
2014,04,29,01,59,9.90
2014,04,29,02,00,9.90
2014,04,29,02,01,9.90
2014,04,29,02,02,9.90
2014,04,29,02,03,9.90
2014,04,29,02,04,9.90
2014,04,29,02,05,9.90
2014,04,29,02,06,9.90
2014,04,29,02,07,9.80
2014,04,29,02,08,9.80
2014,04,29,02,09,9.80
2014,04,29,02,10,9.80
2014,04,29,02,11,9.80
2014,04,29,02,12,9.80
2014,04,29,02,13,9.80
2014,04,29,02,14,9.80
2014,04,29,02,15,9.70
2014,04,29,02,16,9.70
2014,04,29,02,17,9.70
2014,04,29,02,18,9.70
2014,04,29,02,19,9.70
2014,04,29,02,20,9.70
2014,04,29,02,21,9.70
2014,04,29,02,22,9.70
2014,04,29,02,23,9.70
2014,04,29,02,24,9.70
2014,04,29,02,25,9.70
2014,04,29,02,26,9.70
2014,04,29,02,27,9.70
2014,04,29,02,28,9.70
2014,04,29,02,29,9.70
2014,04,29,02,30,9.70
2014,04,29,02,31,9.70
2014,04,29,02,32,9.70
2014,04,29,02,33,9.70
2014,04,29,02,34,9.70
2014,04,29,02,35,9.70
2014,04,29,02,36,9.70
2014,04,29,02,37,9.70
2014,04,29,02,38,9.70
2014,04,29,02,39,9.70
2014,04,29,02,40,9.70
2014,04,29,02,41,9.70
2014,04,29,02,42,9.70
2014,04,29,02,43,9.70
2014,04,29,02,44,9.70
2014,04,29,02,45,9.70
2014,04,29,02,46,9.70
2014,04,29,02,47,9.70
2014,04,29,02,48,9.70
2014,04,29,02,49,9.60
2014,04,29,02,50,9.60
2014,04,29,02,51,9.60
2014,04,29,02,52,9.60
2014,04,29,02,53,9.60
2014,04,29,02,54,9.60
2014,04,29,02,55,9.60
2014,04,29,02,56,9.60
2014,04,29,02,57,9.60
2014,04,29,02,58,9.60
2014,04,29,02,59,9.60
2014,04,29,03,00,9.60
2014,04,29,03,01,9.60
2014,04,29,03,02,9.60
2014,04,29,03,03,9.60
2014,04,29,03,04,9.60
2014,04,29,03,05,9.60
2014,04,29,03,06,9.60
2014,04,29,03,07,9.60
2014,04,29,03,08,9.70
2014,04,29,03,09,9.70
2014,04,29,03,10,9.70
2014,04,29,03,11,9.70
2014,04,29,03,12,9.70
2014,04,29,03,13,9.70
2014,04,29,03,14,9.70
2014,04,29,03,15,9.70
2014,04,29,03,16,9.70
2014,04,29,03,17,9.70
2014,04,29,03,18,9.70
2014,04,29,03,19,9.70
2014,04,29,03,20,9.70
2014,04,29,03,21,9.70
2014,04,29,03,22,9.70
2014,04,29,03,23,9.70
2014,04,29,03,24,9.70
2014,04,29,03,25,9.70
2014,04,29,03,26,9.70
2014,04,29,03,27,9.70
2014,04,29,03,28,9.70
2014,04,29,03,29,9.70
2014,04,29,03,30,9.70
2014,04,29,03,31,9.70
2014,04,29,03,32,9.70
2014,04,29,03,33,9.70
2014,04,29,03,34,9.80
2014,04,29,03,35,9.80
2014,04,29,03,36,9.80
2014,04,29,03,37,9.80
2014,04,29,03,38,9.80
2014,04,29,03,39,9.80
2014,04,29,03,40,9.80
2014,04,29,03,41,9.80
2014,04,29,03,42,9.80
2014,04,29,03,43,9.80
2014,04,29,03,44,9.80
2014,04,29,03,45,9.80
2014,04,29,03,46,9.80
2014,04,29,03,47,9.80
2014,04,29,03,48,9.80
2014,04,29,03,49,9.80
2014,04,29,03,50,9.90
2014,04,29,03,51,9.90
2014,04,29,03,52,9.90
2014,04,29,03,53,9.90
2014,04,29,03,54,9.90
2014,04,29,03,55,9.90
2014,04,29,03,56,9.90
2014,04,29,03,57,9.90
2014,04,29,03,58,9.90
2014,04,29,03,59,9.90
2014,04,29,04,00,9.90
2014,04,29,04,01,9.90
2014,04,29,04,02,9.90
2014,04,29,04,03,9.90
2014,04,29,04,04,9.90
2014,04,29,04,05,9.90
2014,04,29,04,06,9.90
2014,04,29,04,07,9.90
2014,04,29,04,08,9.90
2014,04,29,04,09,9.90
2014,04,29,04,10,9.90
2014,04,29,04,11,9.90
2014,04,29,04,12,9.90
2014,04,29,04,13,9.90
2014,04,29,04,14,9.90
2014,04,29,04,15,9.90
2014,04,29,04,16,9.90
2014,04,29,04,17,9.90
2014,04,29,04,18,10.00
2014,04,29,04,19,10.10
2014,04,29,04,20,10.10
2014,04,29,04,21,10.00
2014,04,29,04,22,10.00
2014,04,29,04,23,9.90
2014,04,29,04,24,9.90
2014,04,29,04,25,9.90
2014,04,29,04,26,9.90
2014,04,29,04,27,9.90
2014,04,29,04,28,9.90
2014,04,29,04,29,9.90
2014,04,29,04,30,9.90
2014,04,29,04,31,9.90
2014,04,29,04,32,9.90
2014,04,29,04,33,9.90
2014,04,29,04,34,9.90
2014,04,29,04,35,9.90
2014,04,29,04,36,9.90
2014,04,29,04,37,9.90
2014,04,29,04,38,9.90
2014,04,29,04,39,9.90
2014,04,29,04,40,9.90
2014,04,29,04,41,9.90
2014,04,29,04,42,9.90
2014,04,29,04,43,9.90
2014,04,29,04,44,9.90
2014,04,29,04,45,9.90
2014,04,29,04,46,9.90
2014,04,29,04,47,9.90
2014,04,29,04,48,9.90
2014,04,29,04,49,9.90
2014,04,29,04,50,9.90
2014,04,29,04,51,9.90
2014,04,29,04,52,9.90
2014,04,29,04,53,9.90
2014,04,29,04,54,9.90
2014,04,29,04,55,9.90
2014,04,29,04,56,9.90
2014,04,29,04,57,9.90
2014,04,29,04,58,9.90
2014,04,29,04,59,9.90
2014,04,29,05,00,9.90
2014,04,29,05,01,9.90
2014,04,29,05,02,9.90
2014,04,29,05,03,9.90
2014,04,29,05,04,9.90
2014,04,29,05,05,9.90
2014,04,29,05,06,9.90
2014,04,29,05,07,9.90
2014,04,29,05,08,9.80
2014,04,29,05,09,9.80
2014,04,29,05,10,9.80
2014,04,29,05,11,9.80
2014,04,29,05,12,9.80
2014,04,29,05,13,9.80
2014,04,29,05,14,9.80
2014,04,29,05,15,9.80
2014,04,29,05,16,9.80
2014,04,29,05,17,9.80
2014,04,29,05,18,9.80
2014,04,29,05,19,9.80
2014,04,29,05,20,9.80
2014,04,29,05,21,9.80
2014,04,29,05,22,9.80
2014,04,29,05,23,9.80
2014,04,29,05,24,9.80
2014,04,29,05,25,9.80
2014,04,29,05,26,9.80
2014,04,29,05,27,9.80
2014,04,29,05,28,9.80
2014,04,29,05,29,9.80
2014,04,29,05,30,9.80
2014,04,29,05,31,9.80
2014,04,29,05,32,9.80
2014,04,29,05,33,9.80
2014,04,29,05,34,9.80
2014,04,29,05,35,9.80
2014,04,29,05,36,9.80
2014,04,29,05,37,9.80
2014,04,29,05,38,9.80
2014,04,29,05,39,9.90
2014,04,29,05,40,9.90
2014,04,29,05,41,9.90
2014,04,29,05,42,9.90
2014,04,29,05,43,9.90
2014,04,29,05,44,9.90
2014,04,29,05,45,9.90
2014,04,29,05,46,9.90
2014,04,29,05,47,9.90
2014,04,29,05,48,9.90
2014,04,29,05,49,9.90
2014,04,29,05,50,9.90
2014,04,29,05,51,9.90
2014,04,29,05,52,9.90
2014,04,29,05,53,9.90
2014,04,29,05,54,9.90
2014,04,29,05,55,9.90
2014,04,29,05,56,9.90
2014,04,29,05,57,9.90
2014,04,29,05,58,10.00
2014,04,29,05,59,10.10
2014,04,29,06,00,10.10
2014,04,29,06,01,10.10
2014,04,29,06,02,10.10
2014,04,29,06,03,10.10
2014,04,29,06,04,10.10
2014,04,29,06,05,10.00
2014,04,29,06,06,9.90
2014,04,29,06,07,10.10
2014,04,29,06,08,10.10
2014,04,29,06,09,10.10
2014,04,29,06,10,10.10
2014,04,29,06,11,10.10
2014,04,29,06,12,10.10
2014,04,29,06,13,10.10
2014,04,29,06,14,10.10
2014,04,29,06,15,10.10
2014,04,29,06,16,10.10
2014,04,29,06,17,10.10
2014,04,29,06,18,10.10
2014,04,29,06,19,10.10
2014,04,29,06,20,10.10
2014,04,29,06,21,10.10
2014,04,29,06,22,10.10
2014,04,29,06,23,10.10
2014,04,29,06,24,10.10
2014,04,29,06,25,10.10
2014,04,29,06,26,10.10
2014,04,29,06,27,10.10
2014,04,29,06,28,10.10
2014,04,29,06,29,10.10
2014,04,29,06,30,10.10
2014,04,29,06,31,10.10
2014,04,29,06,32,10.10
2014,04,29,06,33,10.10
2014,04,29,06,34,10.10
2014,04,29,06,35,10.10
2014,04,29,06,36,10.10
2014,04,29,06,37,10.10
2014,04,29,06,38,10.10
2014,04,29,06,39,10.10
2014,04,29,06,40,10.10
2014,04,29,06,41,10.10
2014,04,29,06,42,10.10
2014,04,29,06,43,10.10
2014,04,29,06,44,10.10
2014,04,29,06,45,10.10
2014,04,29,06,46,10.10
2014,04,29,06,47,10.10
2014,04,29,06,48,10.10
2014,04,29,06,49,10.10
2014,04,29,06,50,10.10
2014,04,29,06,51,10.10
2014,04,29,06,52,10.10
2014,04,29,06,53,10.10
2014,04,29,06,54,10.10
2014,04,29,06,55,10.10
2014,04,29,06,56,10.10
2014,04,29,06,57,10.10
2014,04,29,06,58,10.10
2014,04,29,06,59,10.10
2014,04,29,07,00,10.10
2014,04,29,07,01,10.10
2014,04,29,07,02,10.10
2014,04,29,07,03,10.10
2014,04,29,07,04,10.10
2014,04,29,07,05,10.10
2014,04,29,07,06,10.10
2014,04,29,07,07,10.10
2014,04,29,07,08,10.10
2014,04,29,07,09,10.10
2014,04,29,07,10,10.10
2014,04,29,07,11,10.10
2014,04,29,07,12,10.10
2014,04,29,07,13,10.10
2014,04,29,07,14,10.10
2014,04,29,07,15,10.20
2014,04,29,07,16,10.20
2014,04,29,07,17,10.20
2014,04,29,07,18,10.20
2014,04,29,07,19,10.20
2014,04,29,07,20,10.30
2014,04,29,07,21,10.30
2014,04,29,07,22,10.30
2014,04,29,07,23,10.40
2014,04,29,07,24,10.40
2014,04,29,07,25,10.40
2014,04,29,07,26,10.40
2014,04,29,07,27,10.40
2014,04,29,07,28,10.40
2014,04,29,07,29,10.40
2014,04,29,07,30,10.60
2014,04,29,07,31,10.60
2014,04,29,07,32,10.60
2014,04,29,07,33,10.60
2014,04,29,07,34,10.60
2014,04,29,07,35,10.60
2014,04,29,07,36,10.60
2014,04,29,07,37,10.60
2014,04,29,07,38,10.60
2014,04,29,07,39,10.60
2014,04,29,07,40,10.60
2014,04,29,07,41,10.60
2014,04,29,07,42,10.60
2014,04,29,07,43,10.60
2014,04,29,07,44,10.60
2014,04,29,07,45,10.60
2014,04,29,07,46,10.60
2014,04,29,07,47,10.70
2014,04,29,07,48,10.70
2014,04,29,07,49,10.70
2014,04,29,07,50,10.70
2014,04,29,07,51,10.70
2014,04,29,07,52,10.70
2014,04,29,07,53,10.70
2014,04,29,07,54,10.70
2014,04,29,07,55,10.70
2014,04,29,07,56,10.70
2014,04,29,07,57,10.70
2014,04,29,07,58,10.80
2014,04,29,07,59,10.80
2014,04,29,08,00,10.80
2014,04,29,08,01,10.80
2014,04,29,08,02,10.80
2014,04,29,08,03,10.80
2014,04,29,08,04,10.80
2014,04,29,08,05,10.80
2014,04,29,08,06,10.80
2014,04,29,08,07,10.90
2014,04,29,08,08,10.90
2014,04,29,08,09,10.90
2014,04,29,08,10,10.90
2014,04,29,08,11,10.90
2014,04,29,08,12,10.90
2014,04,29,08,13,10.90
2014,04,29,08,14,10.90
2014,04,29,08,15,10.90
2014,04,29,08,16,10.90
2014,04,29,08,17,11.00
2014,04,29,08,18,11.10
2014,04,29,08,19,11.10
2014,04,29,08,20,11.10
2014,04,29,08,21,11.10
2014,04,29,08,22,11.10
2014,04,29,08,23,11.20
2014,04,29,08,24,11.20
2014,04,29,08,25,11.20
2014,04,29,08,26,11.20
2014,04,29,08,27,11.30
2014,04,29,08,28,11.30
2014,04,29,08,29,11.30
2014,04,29,08,30,11.30
2014,04,29,08,31,11.30
2014,04,29,08,32,11.30
2014,04,29,08,33,11.40
2014,04,29,08,34,11.40
2014,04,29,08,35,11.40
2014,04,29,08,36,11.40
2014,04,29,08,37,11.50
2014,04,29,08,38,11.60
2014,04,29,08,39,11.60
2014,04,29,08,40,11.60
2014,04,29,08,41,11.60
2014,04,29,08,42,11.60
2014,04,29,08,43,11.60
2014,04,29,08,44,11.60
2014,04,29,08,45,11.70
2014,04,29,08,46,11.70
2014,04,29,08,47,11.70
2014,04,29,08,48,11.80
2014,04,29,08,49,11.80
2014,04,29,08,50,11.80
2014,04,29,08,51,11.80
2014,04,29,08,52,11.90
2014,04,29,08,53,11.90
2014,04,29,08,54,11.90
2014,04,29,08,55,12.00
2014,04,29,08,56,12.00
2014,04,29,08,57,12.10
2014,04,29,08,58,12.10
2014,04,29,08,59,12.10
2014,04,29,09,00,12.10
2014,04,29,09,01,12.20
2014,04,29,09,02,12.20
2014,04,29,09,03,12.30
2014,04,29,09,04,12.30
2014,04,29,09,05,12.30
2014,04,29,09,06,12.40
2014,04,29,09,07,12.40
2014,04,29,09,08,12.50
2014,04,29,09,09,12.50
2014,04,29,09,10,12.60
2014,04,29,09,11,12.60
2014,04,29,09,12,12.70
2014,04,29,09,13,12.70
2014,04,29,09,14,12.70
2014,04,29,09,15,12.80
2014,04,29,09,16,12.80
2014,04,29,09,17,12.80
2014,04,29,09,18,12.80
2014,04,29,09,19,12.90
2014,04,29,09,20,13.00
2014,04,29,09,21,13.00
2014,04,29,09,22,13.10
2014,04,29,09,23,13.20
2014,04,29,09,24,13.20
2014,04,29,09,25,13.20
2014,04,29,09,26,13.20
2014,04,29,09,27,13.20
2014,04,29,09,28,13.20
2014,04,29,09,29,13.30
2014,04,29,09,30,13.30
2014,04,29,09,31,13.20
2014,04,29,09,32,13.20
2014,04,29,09,33,13.20
2014,04,29,09,34,13.30
2014,04,29,09,35,13.30
2014,04,29,09,36,13.30
2014,04,29,09,37,13.30
2014,04,29,09,38,13.30
2014,04,29,09,39,13.30
2014,04,29,09,40,13.30
2014,04,29,09,41,13.30
2014,04,29,09,42,13.30
2014,04,29,09,43,13.30
2014,04,29,09,44,13.30
2014,04,29,09,45,13.30
2014,04,29,09,46,13.30
2014,04,29,09,47,13.30
2014,04,29,09,48,13.30
2014,04,29,09,49,13.30
2014,04,29,09,50,13.40
2014,04,29,09,51,13.40
2014,04,29,09,52,13.40
2014,04,29,09,53,13.40
2014,04,29,09,54,13.50
2014,04,29,09,55,13.50
2014,04,29,09,56,13.50
2014,04,29,09,57,13.50
2014,04,29,09,58,13.50
2014,04,29,09,59,13.50
2014,04,29,10,00,13.50
2014,04,29,10,01,13.50
2014,04,29,10,02,13.50
2014,04,29,10,03,13.50
2014,04,29,10,04,13.60
2014,04,29,10,05,13.60
2014,04,29,10,06,13.60
2014,04,29,10,07,13.60
2014,04,29,10,08,13.60
2014,04,29,10,09,13.70
2014,04,29,10,10,13.70
2014,04,29,10,11,13.70
2014,04,29,10,12,13.70
2014,04,29,10,13,13.70
2014,04,29,10,14,13.70
2014,04,29,10,15,13.70
2014,04,29,10,16,13.70
2014,04,29,10,17,13.80
2014,04,29,10,18,13.80
2014,04,29,10,19,13.80
2014,04,29,10,20,13.70
2014,04,29,10,21,13.70
2014,04,29,10,22,13.70
2014,04,29,10,23,13.60
2014,04,29,10,24,13.60
2014,04,29,10,25,13.50
2014,04,29,10,26,13.50
2014,04,29,10,27,13.50
2014,04,29,10,28,13.60
2014,04,29,10,29,13.70
2014,04,29,10,30,13.70
2014,04,29,10,31,13.80
2014,04,29,10,32,13.90
2014,04,29,10,33,13.90
2014,04,29,10,34,14.00
2014,04,29,10,35,14.10
2014,04,29,10,36,14.10
2014,04,29,10,37,14.20
2014,04,29,10,38,14.20
2014,04,29,10,39,14.20
2014,04,29,10,40,14.20
2014,04,29,10,41,14.20
2014,04,29,10,42,14.20
2014,04,29,10,43,14.20
2014,04,29,10,44,14.20
2014,04,29,10,45,14.20
2014,04,29,10,46,14.20
2014,04,29,10,47,14.20
2014,04,29,10,48,14.30
2014,04,29,10,49,14.30
2014,04,29,10,50,14.30
2014,04,29,10,51,14.40
2014,04,29,10,52,14.40
2014,04,29,10,53,14.50
2014,04,29,10,54,14.50
2014,04,29,10,55,14.50
2014,04,29,10,56,14.50
2014,04,29,10,57,14.50
2014,04,29,10,58,14.50
2014,04,29,10,59,14.50
2014,04,29,11,00,14.50
2014,04,29,11,01,14.50
2014,04,29,11,02,14.50
2014,04,29,11,03,14.50
2014,04,29,11,04,14.50
2014,04,29,11,05,14.50
2014,04,29,11,06,14.60
2014,04,29,11,07,14.60
2014,04,29,11,08,14.60
2014,04,29,11,09,14.60
2014,04,29,11,10,14.70
2014,04,29,11,11,14.70
2014,04,29,11,12,14.80
2014,04,29,11,13,14.80
2014,04,29,11,14,14.80
2014,04,29,11,15,14.80
2014,04,29,11,16,14.80
2014,04,29,11,17,14.80
2014,04,29,11,18,14.80
2014,04,29,11,19,14.80
2014,04,29,11,20,14.80
2014,04,29,11,21,14.80
2014,04,29,11,22,14.80
2014,04,29,11,23,14.70
2014,04,29,11,24,14.70
2014,04,29,11,25,14.70
2014,04,29,11,26,14.60
2014,04,29,11,27,14.60
2014,04,29,11,28,14.60
2014,04,29,11,29,14.60
2014,04,29,11,30,14.70
2014,04,29,11,31,14.70
2014,04,29,11,32,14.80
2014,04,29,11,33,14.80
2014,04,29,11,34,14.90
2014,04,29,11,35,15.00
2014,04,29,11,36,15.10
2014,04,29,11,37,15.10
2014,04,29,11,38,15.10
2014,04,29,11,39,15.20
2014,04,29,11,40,15.20
2014,04,29,11,41,15.30
2014,04,29,11,42,15.30
2014,04,29,11,43,15.30
2014,04,29,11,44,15.30
2014,04,29,11,45,15.40
2014,04,29,11,46,15.50
2014,04,29,11,47,15.60
2014,04,29,11,48,15.70
2014,04,29,11,49,15.70
2014,04,29,11,50,15.80
2014,04,29,11,51,15.80
2014,04,29,11,52,15.80
2014,04,29,11,53,15.80
2014,04,29,11,54,15.90
2014,04,29,11,55,15.90
2014,04,29,11,56,15.90
2014,04,29,11,57,15.90
2014,04,29,11,58,15.90
2014,04,29,11,59,15.90
2014,04,29,12,00,15.90
2014,04,29,12,01,15.90
2014,04,29,12,02,15.80
2014,04,29,12,03,15.80
2014,04,29,12,04,15.80
2014,04,29,12,05,15.80
2014,04,29,12,06,15.80
2014,04,29,12,07,15.80
2014,04,29,12,08,15.90
2014,04,29,12,09,15.90
2014,04,29,12,10,16.00
2014,04,29,12,11,16.10
2014,04,29,12,12,16.10
2014,04,29,12,13,16.20
2014,04,29,12,14,16.30
2014,04,29,12,15,16.40
2014,04,29,12,16,16.40
2014,04,29,12,17,16.60
2014,04,29,12,18,16.60
2014,04,29,12,19,16.60
2014,04,29,12,20,16.70
2014,04,29,12,21,16.70
2014,04,29,12,22,16.70
2014,04,29,12,23,16.70
2014,04,29,12,24,16.70
2014,04,29,12,25,16.70
2014,04,29,12,26,16.80
2014,04,29,12,27,16.80
2014,04,29,12,28,16.90
2014,04,29,12,29,17.00
2014,04,29,12,30,17.00
2014,04,29,12,31,17.10
2014,04,29,12,32,17.00
2014,04,29,12,33,17.00
2014,04,29,12,34,17.00
2014,04,29,12,35,16.90
2014,04,29,12,36,16.90
2014,04,29,12,37,16.90
2014,04,29,12,38,16.90
2014,04,29,12,39,17.00
2014,04,29,12,40,17.00
2014,04,29,12,41,17.10
2014,04,29,12,42,17.10
2014,04,29,12,43,17.10
2014,04,29,12,44,17.20
2014,04,29,12,45,17.10
2014,04,29,12,46,17.10
2014,04,29,12,47,17.10
2014,04,29,12,48,17.20
2014,04,29,12,49,17.30
2014,04,29,12,50,17.20
2014,04,29,12,51,17.10
2014,04,29,12,52,17.00
2014,04,29,12,53,17.00
2014,04,29,12,54,16.90
2014,04,29,12,55,16.90
2014,04,29,12,56,16.80
2014,04,29,12,57,16.70
2014,04,29,12,58,16.70
2014,04,29,12,59,16.70
2014,04,29,13,00,16.80
2014,04,29,13,01,16.90
2014,04,29,13,02,16.90
2014,04,29,13,03,17.00
2014,04,29,13,04,16.90
2014,04,29,13,05,16.80
2014,04,29,13,06,16.80
2014,04,29,13,07,16.80
2014,04,29,13,08,16.80
2014,04,29,13,09,16.90
2014,04,29,13,10,17.00
2014,04,29,13,11,17.00
2014,04,29,13,12,17.10
2014,04,29,13,13,17.10
2014,04,29,13,14,17.20
2014,04,29,13,15,17.30
2014,04,29,13,16,17.30
2014,04,29,13,17,17.30
2014,04,29,13,18,17.30
2014,04,29,13,19,17.30
2014,04,29,13,20,17.30
2014,04,29,13,21,17.30
2014,04,29,13,22,17.40
2014,04,29,13,23,17.40
2014,04,29,13,24,17.50
2014,04,29,13,25,17.40
2014,04,29,13,26,17.40
2014,04,29,13,27,17.30
2014,04,29,13,28,17.30
2014,04,29,13,29,17.30
2014,04,29,13,30,17.40
2014,04,29,13,31,17.40
2014,04,29,13,32,17.40
2014,04,29,13,33,17.50
2014,04,29,13,34,17.60
2014,04,29,13,35,17.70
2014,04,29,13,36,17.70
2014,04,29,13,37,17.70
2014,04,29,13,38,17.80
2014,04,29,13,39,17.90
2014,04,29,13,40,18.00
2014,04,29,13,41,18.10
2014,04,29,13,42,18.20
2014,04,29,13,43,18.20
2014,04,29,13,44,18.20
2014,04,29,13,45,18.20
2014,04,29,13,46,18.30
2014,04,29,13,47,18.30
2014,04,29,13,48,18.30
2014,04,29,13,49,18.20
2014,04,29,13,50,18.20
2014,04,29,13,51,18.20
2014,04,29,13,52,18.20
2014,04,29,13,53,18.30
2014,04,29,13,54,18.50
2014,04,29,13,55,18.70
2014,04,29,13,56,18.80
2014,04,29,13,57,18.90
2014,04,29,13,58,18.90
2014,04,29,13,59,18.90
2014,04,29,14,00,19.00
2014,04,29,14,01,19.10
2014,04,29,14,02,19.10
2014,04,29,14,03,19.10
2014,04,29,14,04,19.10
2014,04,29,14,05,19.10
2014,04,29,14,06,19.10
2014,04,29,14,07,19.10
2014,04,29,14,08,19.10
2014,04,29,14,09,19.00
2014,04,29,14,10,18.90
2014,04,29,14,11,18.90
2014,04,29,14,12,18.90
2014,04,29,14,13,18.90
2014,04,29,14,14,18.90
2014,04,29,14,15,18.80
2014,04,29,14,16,18.80
2014,04,29,14,17,18.90
2014,04,29,14,18,19.10
2014,04,29,14,19,19.10
2014,04,29,14,20,19.30
2014,04,29,14,21,19.30
2014,04,29,14,22,19.40
2014,04,29,14,23,19.40
2014,04,29,14,24,19.40
2014,04,29,14,25,19.40
2014,04,29,14,26,19.30
2014,04,29,14,27,19.30
2014,04,29,14,28,19.20
2014,04,29,14,29,19.20
2014,04,29,14,30,19.20
2014,04,29,14,31,19.10
2014,04,29,14,32,19.10
2014,04,29,14,33,19.10
2014,04,29,14,34,19.10
2014,04,29,14,35,19.20
2014,04,29,14,36,19.30
2014,04,29,14,37,19.30
2014,04,29,14,38,19.30
2014,04,29,14,39,19.30
2014,04,29,14,40,19.30
2014,04,29,14,41,19.20
2014,04,29,14,42,19.20
2014,04,29,14,43,19.20
2014,04,29,14,44,19.20
2014,04,29,14,45,19.10
2014,04,29,14,46,19.20
2014,04,29,14,47,19.20
2014,04,29,14,48,19.40
2014,04,29,14,49,19.40
2014,04,29,14,50,19.50
2014,04,29,14,51,19.60
2014,04,29,14,52,19.60
2014,04,29,14,53,19.70
2014,04,29,14,54,19.70
2014,04,29,14,55,19.70
2014,04,29,14,56,19.80
2014,04,29,14,57,19.80
2014,04,29,14,58,19.80
2014,04,29,14,59,19.80
2014,04,29,15,00,19.80
2014,04,29,15,01,19.80
2014,04,29,15,02,19.80
2014,04,29,15,03,19.80
2014,04,29,15,04,19.80
2014,04,29,15,05,19.90
2014,04,29,15,06,19.90
2014,04,29,15,07,19.90
2014,04,29,15,08,19.90
2014,04,29,15,09,19.90
2014,04,29,15,10,20.00
2014,04,29,15,11,20.10
2014,04,29,15,12,20.10
2014,04,29,15,13,20.20
2014,04,29,15,14,20.30
2014,04,29,15,15,20.30
2014,04,29,15,16,20.30
2014,04,29,15,17,20.40
2014,04,29,15,18,20.50
2014,04,29,15,19,20.50
2014,04,29,15,20,20.60
2014,04,29,15,21,20.60
2014,04,29,15,22,20.70
2014,04,29,15,23,20.70
2014,04,29,15,24,20.70
2014,04,29,15,25,20.70
2014,04,29,15,26,20.70
2014,04,29,15,27,20.70
2014,04,29,15,28,20.60
2014,04,29,15,29,20.60
2014,04,29,15,30,20.60
2014,04,29,15,31,20.60
2014,04,29,15,32,20.60
2014,04,29,15,33,20.60
2014,04,29,15,34,20.60
2014,04,29,15,35,20.50
2014,04,29,15,36,20.40
2014,04,29,15,37,20.30
2014,04,29,15,38,20.20
2014,04,29,15,39,20.20
2014,04,29,15,40,20.20
2014,04,29,15,41,20.20
2014,04,29,15,42,20.10
2014,04,29,15,43,20.10
2014,04,29,15,44,20.10
2014,04,29,15,45,20.10
2014,04,29,15,46,20.10
2014,04,29,15,47,20.20
2014,04,29,15,48,20.10
2014,04,29,15,49,20.10
2014,04,29,15,50,20.20
2014,04,29,15,51,20.20
2014,04,29,15,52,20.20
2014,04,29,15,53,20.20
2014,04,29,15,54,20.30
2014,04,29,15,55,20.40
2014,04,29,15,56,20.50
2014,04,29,15,57,20.60
2014,04,29,15,58,20.60
2014,04,29,15,59,20.60
2014,04,29,16,00,20.60
2014,04,29,16,01,20.50
2014,04,29,16,02,20.50
2014,04,29,16,03,20.50
2014,04,29,16,04,20.50
2014,04,29,16,05,20.50
2014,04,29,16,06,20.50
2014,04,29,16,07,20.40
2014,04,29,16,08,20.40
2014,04,29,16,09,20.40
2014,04,29,16,10,20.50
2014,04,29,16,11,20.50
2014,04,29,16,12,20.60
2014,04,29,16,13,20.60
2014,04,29,16,14,20.60
2014,04,29,16,15,20.60
2014,04,29,16,16,20.60
2014,04,29,16,17,20.70
2014,04,29,16,18,20.70
2014,04,29,16,19,20.70
2014,04,29,16,20,20.80
2014,04,29,16,21,20.80
2014,04,29,16,22,20.80
2014,04,29,16,23,20.90
2014,04,29,16,24,20.90
2014,04,29,16,25,21.00
2014,04,29,16,26,21.00
2014,04,29,16,27,21.00
2014,04,29,16,28,21.00
2014,04,29,16,29,21.00
2014,04,29,16,30,21.00
2014,04,29,16,31,21.00
2014,04,29,16,32,21.00
2014,04,29,16,33,21.00
2014,04,29,16,34,21.00
2014,04,29,16,35,21.00
2014,04,29,16,36,20.90
2014,04,29,16,37,20.90
2014,04,29,16,38,20.90
2014,04,29,16,39,20.90
2014,04,29,16,40,20.90
2014,04,29,16,41,20.90
2014,04,29,16,42,20.90
2014,04,29,16,43,20.80
2014,04,29,16,44,20.80
2014,04,29,16,45,20.70
2014,04,29,16,46,20.70
2014,04,29,16,47,20.60
2014,04,29,16,48,20.60
2014,04,29,16,49,20.60
2014,04,29,16,50,20.60
2014,04,29,16,51,20.60
2014,04,29,16,52,20.50
2014,04,29,16,53,20.50
2014,04,29,16,54,20.50
2014,04,29,16,55,20.50
2014,04,29,16,56,20.50
2014,04,29,16,57,20.60
2014,04,29,16,58,20.60
2014,04,29,16,59,20.70
2014,04,29,17,00,20.70
2014,04,29,17,01,20.70
2014,04,29,17,02,20.80
2014,04,29,17,03,20.80
2014,04,29,17,04,20.80
2014,04,29,17,05,20.80
2014,04,29,17,06,20.80
2014,04,29,17,07,20.80
2014,04,29,17,08,20.80
2014,04,29,17,09,20.80
2014,04,29,17,10,20.80
2014,04,29,17,11,20.80
2014,04,29,17,12,20.80
2014,04,29,17,13,20.80
2014,04,29,17,14,20.80
2014,04,29,17,15,20.80
2014,04,29,17,16,20.80
2014,04,29,17,17,20.80
2014,04,29,17,18,20.80
2014,04,29,17,19,20.80
2014,04,29,17,20,20.80
2014,04,29,17,21,20.70
2014,04,29,17,22,20.70
2014,04,29,17,23,20.70
2014,04,29,17,24,20.60
2014,04,29,17,25,20.60
2014,04,29,17,26,20.50
2014,04,29,17,27,20.60
2014,04,29,17,28,20.50
2014,04,29,17,29,20.50